Вернуться в каталог

THORAD AGENA D DEB

АктивенPO
NORAD 4818·DEBRIS·🇺🇸 United States

Запущен Apr 8, 1970 с Vandenberg Space Force Base

Loading…

Ближайшие Пролёты

TLE

Source: Space-Track
1 04818U 70025DZ  26218.98906634  .00000567  00000-0  14433-2 0  9994
2 04818  99.8910 126.9591 0271648  79.2735 346.3925 13.10366721686476

Отслеживайте THORAD AGENA D DEB в реальном времени с AllMySat

Download on the App Store